Home   Weather   Opole   Past weeks

Flag for Poland Past Weather in Opole, Poland — Yesterday and Last 2 Weeks

Now
46 °F

Rain showers. Partly cloudy.


Feels Like: 38 °F
Forecast: 38 / 50 °F
Wind: 23 mph from Northwest

Location: Wroclaw Ii

Current Time: Feb 21, 2017 at 6:45:00 am

Latest Report: Feb 21, 2017 at 6:00 am


Visibility: 2 mi

Pressure: 29.68 "Hg

Humidity: 93%

Dew Point: 45 °F

Location of OpoleLocation

Past Weather in Opole — Graph

°F

Opole Temperature Yesterday

Maximum temperature yesterday: 48 °F (at 1:30 pm)
Minimum temperature yesterday: 36 °F (at 5:00 am)
Average temperature yesterday: 41 °F

High & Low Weather Summary for the Past Weeks

 TemperatureHumidityPressure
High52 °F (Feb 16, 1:30 pm)100% (Feb 6, 6:00 am)30.69 "Hg (Feb 6, 6:00 am)
Low16 °F (Feb 13, 4:30 am)29% (Feb 15, 3:00 pm)29.68 "Hg (Feb 21, 3:00 am)
Average30 °F79%30.34 "Hg
* Reported Feb 6 6:00 am — Feb 21 6:00 am, Opole, Weather by CustomWeather, © 2017

Note: Actual official high and low records may vary slightly from our data, if they occured in-between our weather recording intervals... More about our weather records

Advertising

Opole Weather History for the Previous 24 Hours

Scroll right to see more
 ConditionsComfort  
Time TempWeatherWind HumidityBarometerVisibility
6:00 am
Tue, Feb 21
46 °FRain showers. Partly cloudy.23 mph93%29.68 "Hg2 mi
5:00 am48 °FPassing clouds.22 mph82%29.68 "HgN/A
4:30 am48 °FPassing clouds.18 mph82%29.68 "HgN/A
4:00 am48 °FPassing clouds.20 mph82%29.68 "HgN/A
3:30 am48 °FPassing clouds.20 mph82%29.68 "HgN/A
3:00 am48 °FPassing clouds.18 mph82%29.68 "HgN/A
2:30 am48 °FLight rain. Passing clouds.17 mph82%29.71 "HgN/A
2:00 am48 °FLight rain. Overcast.18 mph82%29.71 "HgN/A
1:30 am46 °FLight rain. Overcast.16 mph87%29.71 "HgN/A
1:00 am45 °FOvercast.8 mph81%29.71 "HgN/A
12:30 am43 °FOvercast.7 mph87%29.74 "HgN/A
12:00 am43 °FOvercast.12 mph87%29.71 "HgN/A
11:30 pm
Mon, Feb 20
45 °FOvercast.12 mph81%29.74 "HgN/A
11:00 pm43 °FOvercast.8 mph87%29.74 "HgN/A
10:30 pm41 °FLight rain. Overcast.9 mph93%29.74 "HgN/A
10:00 pm41 °FLight rain. Overcast.10 mph93%29.77 "Hg5 mi
9:30 pm43 °FLight rain. Passing clouds.9 mph87%29.77 "Hg5 mi
9:00 pm43 °FLight rain. Overcast.10 mph87%29.80 "Hg5 mi
8:30 pm43 °FLight rain. Overcast.12 mph87%29.80 "Hg5 mi
8:00 pm43 °FLight rain. Passing clouds.13 mph81%29.80 "HgN/A
7:30 pm43 °FLight rain. Passing clouds.13 mph81%29.83 "HgN/A
7:00 pm43 °FLight rain. Passing clouds.12 mph81%29.83 "HgN/A
6:30 pm43 °FLight rain. Partly cloudy.12 mph81%29.86 "HgN/A
6:00 pm45 °FLight rain. Passing clouds.13 mph76%29.86 "HgN/A
5:30 pm45 °FPassing clouds.13 mph71%29.86 "HgN/A
5:00 pm45 °FPartly sunny.14 mph71%29.86 "HgN/A
4:30 pm45 °FPartly sunny.12 mph71%29.89 "HgN/A
4:00 pm45 °FPartly sunny.12 mph71%29.89 "HgN/A
3:30 pm46 °FPartly sunny.15 mph66%29.92 "HgN/A
3:00 pm46 °FPartly sunny.14 mph66%29.92 "HgN/A
2:30 pm46 °FPartly sunny.13 mph66%29.92 "HgN/A
2:00 pm48 °FBroken clouds.14 mph62%29.95 "HgN/A
1:30 pm48 °FPartly sunny.12 mph66%29.95 "HgN/A
1:00 pm46 °FPartly sunny.10 mph66%29.98 "HgN/A
12:30 pm46 °FPartly sunny.12 mph66%30.01 "HgN/A
12:00 pm45 °FPartly sunny.12 mph71%30.01 "HgN/A
11:30 am45 °FPartly sunny.15 mph71%30.04 "HgN/A
11:00 am45 °FScattered clouds.13 mph71%30.04 "HgN/A
10:30 am43 °FPassing clouds.12 mph76%30.04 "HgN/A
10:00 am41 °FBroken clouds.9 mph76%30.07 "HgN/A
9:30 am39 °FPartly sunny.7 mph81%30.07 "HgN/A
9:00 am39 °FPartly sunny.8 mph81%30.07 "HgN/A
8:30 am37 °FPartly sunny.8 mph81%30.07 "HgN/A
8:00 am37 °FPartly sunny.7 mph81%30.07 "HgN/A
7:30 am37 °FOvercast.6 mph81%30.07 "HgN/A
7:00 am37 °FOvercast.5 mph81%30.07 "HgN/A
6:30 am37 °FOvercast.7 mph81%30.07 "HgN/A
6:00 am37 °FOvercast.9 mph81%30.07 "HgN/A
Weather by CustomWeather, © 2017

See weather overviewHow to use our weather pages